Wetbulb
31.15 33.17 36.24 34.43 34.18 35.63 36.74 36.66 35.69 37.40 39.59 40.80 42.76 43.18 45.85 51.88 53.08 51.65 48.22 48.69 46.03 44.56 42.10 45.07 41.79 41.29 40.48 39.05 39.77 37.47 36.44 35.93 30.97 28.00 29.81 30.91 29.99 29.43 30.31 27.80 28.46 27.24 25.76
31.14 33.90 36.88 36.76 36.57 36.59 36.50 36.38 36.93 36.92 38.52 38.62 39.12 40.23 43.76 43.85 46.10 44.60 40.53 39.54 38.05 37.27 36.22 35.96 34.85 36.26 35.23 35.76 36.43 34.70 33.64 32.93 31.71 26.65 28.03 28.21 28.13 29.20 25.78 24.99 25.75 24.28 23.56
30.70 32.18 32.83 33.52 33.72 33.39 33.61 33.86 34.37 34.62 34.30 33.85 35.88 36.71 35.93 36.96 37.94 37.27 36.38 35.51 35.42 35.30 35.35 35.16 34.01 34.59 34.00 34.97 35.05 34.49 33.43 32.66 31.85 27.94 25.51 27.33 25.43 25.62 23.94 23.99 22.15 21.31 22.53
29.80 30.20 30.02 31.08 31.78 31.96 32.14 32.45 32.61 32.96 32.90 32.90 34.08 34.44 35.64 35.78 35.57 35.98 34.88 33.85 33.65 33.66 34.03 34.44 34.87 35.27 34.09 32.99 32.49 32.15 31.72 30.48 29.35 26.98 24.70 23.18 23.21 23.57 22.61 19.58 18.30 19.66 19.26
28.34 28.62 28.58 29.65 30.55 31.07 30.87 31.34 31.80 32.04 32.05 32.88 33.29 33.72 35.66 34.61 34.35 33.66 33.21 32.61 31.76 30.83 31.09 31.60 31.88 32.04 33.91 33.92 32.15 30.44 29.63 27.73 26.37 24.45 22.51 21.44 19.35 19.06 19.58 19.11 17.91 17.33 17.23
27.24 27.12 28.13 28.34 28.62 29.08 29.94 30.21 30.68 30.88 31.82 31.65 31.81 32.40 32.51 32.94 35.30 34.63 32.70 30.84 30.47 30.01 29.16 30.14 31.18 31.59 33.01 33.42 32.98 32.03 30.15 27.12 25.39 24.10 22.46 21.31 20.15 20.52 18.43 17.69 16.81 14.19 10.98
26.57 27.37 27.72 27.86 27.66 28.05 28.70 29.10 29.01 29.27 30.10 30.50 30.95 31.57 31.76 32.77 34.36 33.47 32.09 30.25 29.41 29.15 29.11 28.93 28.69 29.50 29.90 30.47 32.44 32.68 30.69 31.50 29.27 25.51 23.09 22.05 19.15 19.13 18.08 16.50 15.90 14.74 13.15
25.32 26.16 26.91 26.97 26.73 27.48 27.88 28.07 28.66 29.47 29.58 29.90 30.39 30.93 30.97 31.85 32.97 31.88 30.15 28.01 27.02 27.03 27.11 27.03 25.65 24.86 25.24 23.61 22.55 21.95 21.45 22.13 23.50 23.89 22.60 20.26 19.42 19.56 19.39 17.37 15.60 12.77 10.07
24.00 24.92 25.79 26.39 26.22 26.54 26.23 26.53 27.20 27.45 28.00 28.53 29.26 29.35 29.43 30.16 31.93 31.14 29.02 27.05 25.92 25.45 25.90 25.87 25.45 24.80 27.31 26.64 21.78 20.61 20.61 21.49 25.85 26.06 25.27 25.38 25.08 23.78 19.49 13.65 5.11 2.64 -1.02
24.72 25.29 26.01 25.96 25.60 25.12 25.65 25.87 26.92 27.46 27.13 27.44 27.64 28.74 29.03 29.09 31.36 30.44 28.11 26.13 24.08 23.51 24.21 24.30 25.99 24.92 26.55 25.58 21.02 19.89 17.85 18.69 20.04 19.69 19.89 20.95 20.22 20.93 20.34 13.40 10.24 -0.92 -3.39
26.08 26.30 26.16 26.35 25.87 25.99 25.81 26.26 26.24 26.05 26.03 25.68 25.69 26.70 27.63 28.76 29.44 30.42 29.37 25.37 23.06 22.02 22.22 22.37 23.83 26.41 25.67 25.23 23.01 19.08 18.91 19.20 19.94 13.83 11.66 10.65 11.09 11.94 12.02 11.88 11.20 6.30 -3.20
25.65 25.30 25.44 25.98 26.61 26.40 25.46 25.01 24.55 24.14 23.28 22.99 23.24 23.37 24.71 26.17 28.56 29.51 28.73 27.05 26.05 22.30 21.73 22.24 23.54 26.44 26.03 24.93 20.84 24.82 23.72 15.80 10.69 8.42 7.41 6.64 6.71 6.95 7.32 6.79 6.48 5.78 6.15
21.74 22.28 24.47 25.15 25.70 26.04 24.82 23.76 22.89 22.83 21.75 21.36 21.84 21.20 21.30 22.50 25.69 29.43 28.88 27.87 26.48 22.53 22.45 25.25 27.04 26.48 25.57 23.15 25.52 24.47 13.66 9.42 5.99 1.29 1.77 3.29 4.75 5.70 3.14 -1.77 -2.31 -0.91 -0.30
17.60 19.15 20.49 21.22 22.02 22.45 23.12 22.69 21.45 20.10 19.79 20.08 20.09 19.83 18.63 19.25 19.87 20.63 21.30 22.20 25.32 23.83 25.70 20.80 22.78 20.39 20.86 16.40 17.52 14.41 9.26 6.13 4.58 1.66 -0.77 -0.15 -0.55 -2.42 -1.72 0.15 -1.13 -1.17 -4.36
15.29 17.10 17.80 18.66 18.19 19.74 20.87 19.71 20.38 19.76 19.18 15.40 11.70 15.09 14.86 13.81 17.97 22.37 19.57 16.76 15.12 19.22 12.10 8.62 7.73 6.05 4.41 3.72 3.58 2.70 1.39 1.51 0.53 -2.29 -3.14 -3.31 -2.22 -1.82 -0.88 -1.82 -1.59 -5.89 -5.60
14.88 14.86 13.64 14.13 13.65 15.92 16.97 19.41 29.08 28.32 28.09 27.15 25.54 20.85 18.09 24.25 26.51 25.78 25.09 25.04 25.67 22.69 5.18 1.41 1.86 2.95 4.10 1.97 -0.75 -1.63 -3.42 -2.32 -1.99 -3.88 -6.31 -4.84 -3.22 -1.42 -1.91 -3.80 -3.90 -6.00 -5.76
11.76 12.18 11.50 13.11 12.30 11.67 11.64 13.39 20.60 23.88 28.55 28.04 27.33 26.62 26.34 26.89 27.33 26.38 25.40 25.13 25.58 18.34 -0.99 -2.42 0.73 2.71 1.40 -0.22 -1.44 -2.93 -3.24 -1.29 -4.64 -1.70 -2.40 -2.34 -3.27 -4.73 -3.93 -1.41 -2.26 -2.39 -3.88
7.60 11.73 10.62 10.86 10.38 9.24 9.46 9.23 8.85 13.51 14.76 9.51 20.00 23.84 26.05 27.07 27.35 26.82 26.10 23.36 14.61 13.51 -3.30 -3.44 -1.53 -2.43 -0.82 0.09 -1.75 -2.79 -2.19 -5.02 -4.78 -1.08 -1.43 -2.75 -3.49 -3.40 -6.23 -1.14 0.03 -2.12 -3.38
10.12 8.99 8.51 8.09 8.09 9.47 8.75 8.29 7.21 6.08 5.07 3.82 9.79 16.67 13.08 26.51 27.04 26.89 26.70 6.77 5.50 1.40 -0.99 -2.60 0.08 0.75 0.86 0.11 0.97 0.41 0.68 0.35 -1.45 -2.75 -0.58 0.28 -0.63 -4.34 -3.24 -0.98 1.46 1.53 0.50
5.31 11.03 10.57 9.62 6.14 7.03 7.74 7.41 5.84 4.96 3.15 2.68 5.67 5.80 3.02 6.77 8.14 9.75 11.69 7.54 8.27 11.55 8.73 8.37 6.37 4.81 3.66 2.92 1.79 1.56 -0.08 -5.44 -2.54 -0.42 2.39 2.02 2.37 -0.15 0.78 2.09 2.09 1.78 1.01
11.10 9.10 9.72 4.30 5.81 7.74 6.88 9.70 6.71 3.39 5.78 4.97 8.90 7.62 17.84 8.97 10.74 9.73 10.36 6.91 8.86 9.39 10.13 10.21 8.94 8.16 6.27 5.28 4.24 2.01 1.89 4.47 4.23 4.15 4.79 4.86 3.83 1.02 2.90 4.12 3.48 2.77 2.44
11.41 11.18 7.35 11.10 8.43 5.27 6.80 14.46 14.43 14.97 16.38 16.87 17.26 15.92 23.22 22.93 15.75 13.20 11.23 12.01 12.50 12.57 12.91 12.85 11.90 9.83 9.50 8.11 6.98 5.59 5.08 5.75 6.29 6.11 6.33 5.64 4.32 3.86 4.28 3.62 3.57 3.76 3.80
10.54 9.68 7.36 4.25 7.02 9.15 12.66 19.03 20.45 20.93 20.94 20.97 20.50 19.54 19.00 18.89 19.66 18.95 15.73 13.49 11.65 11.32 10.44 8.48 11.53 11.99 10.52 10.62 10.76 10.48 9.40 8.28 8.77 8.66 7.24 5.89 5.15 4.96 4.77 4.12 4.06 3.62 3.12
13.07 13.32 13.50 11.68 9.34 16.00 19.36 21.52 22.10 22.09 22.21 21.77 21.52 20.95 20.10 20.11 15.37 10.65 11.09 8.74 9.85 10.35 8.84 9.67 11.30 11.80 13.13 11.63 11.89 11.77 11.46 11.43 10.72 9.63 8.83 6.87 5.63 5.55 5.02 4.54 4.24 3.82 3.35
10.55 10.57 10.56 11.71 16.35 21.63 22.17 22.06 22.26 22.41 22.13 21.86 21.60 21.58 17.86 8.28 8.81 8.19 6.33 4.60 6.50 4.30 6.24 9.80 13.30 13.94 13.15 12.91 11.49 10.75 10.73 12.47 10.41 9.51 8.33 7.58 6.01 5.39 4.96 4.45 3.92 3.21 2.74
11.06 9.96 9.26 11.64 22.04 23.42 23.54 23.40 22.82 22.36 21.97 21.29 19.15 13.63 6.35 5.03 5.37 4.65 4.00 5.01 6.95 7.79 10.26 13.40 13.41 12.52 11.56 10.79 10.55 11.13 10.32 11.53 9.72 9.14 7.28 5.93 4.75 4.38 4.41 3.62 3.11 2.39 1.45
MSLP
1004.52 1003.08 1001.54 1001.08 1000.90 1000.57 1000.20 999.84 999.64 999.62 999.53 999.39 999.13 998.93 998.72 998.14 997.57 998.50 999.80 1000.53 1001.21 1002.62 1003.81 1004.67 1005.93 1006.67 1007.34 1008.54 1009.32 1010.52 1011.65 1012.58 1014.13 1016.71 1017.64 1018.85 1020.45 1021.39 1022.58 1024.02 1024.89 1025.27 1025.49
1004.08 1002.50 1000.96 1000.46 1000.13 999.84 999.50 999.24 998.96 998.92 998.89 998.88 998.60 998.15 997.76 997.02 997.20 997.79 999.34 1000.91 1001.68 1003.05 1003.80 1005.02 1006.42 1007.39 1008.06 1008.88 1009.69 1010.83 1011.81 1013.00 1014.17 1015.48 1017.47 1018.45 1020.05 1021.41 1022.65 1023.99 1024.86 1025.25 1025.41
1003.84 1002.59 1001.32 1000.46 999.87 999.31 998.95 998.76 998.61 998.43 998.41 998.32 997.83 997.53 997.31 996.90 997.55 998.12 1000.04 1000.91 1002.02 1003.04 1003.87 1005.06 1006.60 1007.31 1008.23 1009.30 1009.90 1011.26 1012.13 1013.23 1014.07 1015.26 1017.07 1018.57 1020.09 1021.40 1022.98 1024.31 1025.00 1025.12 1025.20
1004.11 1002.95 1001.79 1000.93 1000.24 999.65 999.18 998.83 998.57 998.44 998.30 997.89 997.50 997.66 997.31 997.26 998.16 999.79 1000.25 1001.54 1003.18 1004.14 1005.16 1006.10 1006.83 1007.47 1007.83 1008.86 1010.13 1011.28 1012.33 1013.13 1014.60 1015.70 1017.12 1018.93 1020.21 1021.68 1022.90 1024.31 1024.89 1024.81 1025.09
1004.61 1003.55 1002.66 1001.88 1001.20 1000.49 999.97 999.50 999.21 998.99 998.99 998.74 998.34 998.29 998.26 998.43 999.12 999.86 1000.89 1002.50 1004.18 1005.38 1006.28 1006.76 1007.70 1008.51 1008.80 1009.36 1010.03 1011.69 1012.71 1013.78 1015.07 1016.26 1017.41 1018.99 1020.36 1021.63 1022.64 1023.61 1024.08 1024.81 1025.26
1005.42 1004.51 1003.75 1002.84 1002.05 1001.44 1000.87 1000.50 1000.20 1000.12 999.90 999.88 999.95 998.45 999.35 999.88 1000.40 1000.84 1001.66 1002.89 1004.64 1005.83 1006.59 1008.10 1008.76 1009.50 1010.29 1010.66 1011.39 1012.08 1013.11 1013.81 1015.04 1016.21 1017.60 1018.79 1020.32 1021.30 1022.20 1022.87 1023.87 1024.87 1025.49
1006.31 1005.54 1004.73 1004.00 1003.34 1002.85 1002.33 1001.81 1001.28 1001.24 1000.62 1000.75 1001.24 1000.59 1000.60 1001.24 1001.51 1000.88 1002.68 1004.72 1006.06 1006.74 1007.65 1008.93 1009.81 1010.42 1011.18 1011.77 1012.41 1012.93 1014.15 1014.69 1015.38 1016.02 1017.15 1018.50 1019.96 1020.54 1021.39 1022.59 1023.44 1024.16 1024.98
1007.22 1006.48 1005.81 1005.21 1004.68 1004.27 1003.67 1003.02 1002.77 1002.73 1002.04 1002.56 1001.99 1002.75 1002.59 1002.57 1002.41 1002.40 1004.50 1006.31 1007.37 1008.50 1009.11 1010.21 1011.06 1011.85 1012.53 1012.89 1013.49 1014.37 1015.09 1015.66 1015.90 1016.63 1017.59 1018.52 1019.25 1020.19 1021.12 1021.86 1023.16 1024.41 1025.04
1008.45 1007.79 1007.08 1006.54 1006.07 1005.56 1004.85 1004.70 1004.51 1004.41 1004.85 1004.51 1003.96 1004.09 1003.78 1004.43 1004.18 1004.71 1006.55 1007.64 1008.81 1010.07 1010.82 1011.94 1012.65 1012.88 1013.35 1013.28 1014.26 1015.68 1016.01 1016.55 1016.89 1017.50 1017.99 1018.85 1019.64 1020.69 1021.61 1022.56 1023.85 1024.85 1026.08
1009.63 1009.10 1008.53 1007.99 1007.37 1007.07 1006.71 1006.47 1006.65 1006.04 1005.68 1005.73 1006.08 1005.99 1005.96 1006.00 1005.80 1006.88 1007.62 1009.02 1009.94 1011.19 1012.62 1013.28 1013.17 1013.58 1014.02 1014.55 1015.25 1016.44 1016.78 1017.56 1017.71 1018.50 1019.21 1019.93 1020.77 1021.32 1022.08 1022.49 1023.38 1024.74 1025.81
1010.69 1010.16 1009.71 1009.37 1009.08 1008.79 1008.60 1008.44 1008.32 1008.15 1007.86 1007.78 1007.57 1007.57 1007.64 1007.95 1008.13 1008.76 1009.98 1009.96 1010.51 1012.10 1013.00 1013.57 1014.32 1014.45 1015.08 1015.17 1016.23 1016.99 1017.11 1018.08 1018.94 1019.92 1020.76 1021.47 1021.85 1022.32 1022.66 1022.96 1023.43 1024.03 1025.07
1011.62 1011.18 1010.86 1010.60 1010.30 1010.05 1009.84 1009.73 1009.37 1009.08 1008.98 1009.19 1009.11 1009.20 1009.45 1009.60 1010.00 1010.43 1010.84 1010.85 1012.12 1012.47 1013.90 1014.58 1014.97 1015.05 1015.88 1016.34 1016.92 1017.07 1018.22 1019.04 1020.02 1020.83 1021.53 1022.27 1022.70 1022.98 1023.43 1023.86 1024.17 1024.51 1024.86
1012.48 1012.22 1011.96 1011.62 1011.32 1011.17 1010.97 1010.77 1010.49 1010.38 1010.31 1010.51 1010.53 1010.82 1011.20 1011.41 1011.38 1011.77 1012.14 1012.66 1013.38 1013.94 1014.60 1014.94 1015.39 1015.78 1016.34 1016.74 1017.17 1017.82 1018.97 1019.62 1020.78 1021.67 1022.07 1022.73 1022.96 1023.25 1023.82 1024.57 1024.67 1024.76 1025.13
1013.36 1013.20 1012.90 1012.58 1012.37 1012.05 1011.86 1011.80 1011.74 1011.72 1011.74 1011.87 1012.15 1012.43 1012.66 1012.70 1012.83 1012.97 1013.14 1013.47 1013.89 1014.47 1015.02 1015.61 1016.37 1016.90 1017.24 1017.70 1018.24 1019.23 1019.86 1020.36 1021.14 1022.02 1022.61 1022.81 1023.20 1023.70 1024.05 1024.23 1024.63 1024.90 1025.29
1013.99 1013.89 1013.78 1013.50 1013.26 1013.07 1012.86 1012.73 1012.60 1012.72 1012.63 1012.78 1013.04 1013.17 1013.31 1013.62 1013.66 1013.72 1013.96 1014.46 1014.98 1015.54 1016.18 1017.08 1017.83 1018.45 1018.84 1019.32 1019.84 1020.04 1020.38 1020.87 1021.48 1021.77 1022.57 1023.38 1023.70 1023.85 1024.08 1024.27 1024.66 1025.11 1025.24
1014.59 1014.40 1014.35 1014.23 1014.10 1013.94 1013.69 1013.45 1013.11 1013.10 1013.09 1013.16 1013.34 1013.45 1013.62 1013.76 1013.93 1014.21 1014.55 1014.95 1015.36 1015.97 1016.91 1017.95 1018.53 1018.79 1019.17 1019.63 1020.19 1020.86 1021.25 1021.51 1021.82 1022.19 1022.69 1023.09 1023.55 1023.88 1024.13 1024.22 1024.40 1024.87 1024.97
1014.77 1014.79 1014.83 1014.87 1014.86 1014.80 1014.70 1014.52 1014.37 1013.92 1013.72 1013.75 1013.84 1013.90 1014.03 1014.06 1014.33 1014.67 1015.07 1015.48 1015.97 1016.75 1017.80 1018.55 1019.02 1019.43 1019.88 1020.35 1020.77 1021.14 1021.38 1021.13 1021.33 1021.81 1022.20 1022.55 1022.92 1023.37 1023.70 1023.98 1024.14 1024.30 1024.36
1014.77 1014.88 1015.03 1015.21 1015.23 1015.23 1015.18 1015.12 1015.01 1015.06 1015.10 1014.92 1014.73 1014.55 1014.51 1014.50 1014.58 1014.79 1015.14 1015.58 1016.40 1017.02 1018.26 1018.72 1019.12 1019.37 1019.70 1020.04 1020.36 1020.64 1020.75 1020.82 1021.09 1021.27 1021.57 1021.78 1022.20 1022.65 1023.00 1023.02 1023.19 1023.32 1023.43
1014.71 1014.90 1015.05 1015.20 1015.31 1015.36 1015.45 1015.55 1015.64 1015.75 1015.89 1015.87 1015.82 1015.18 1015.04 1014.81 1014.86 1015.06 1015.36 1016.43 1016.92 1017.46 1018.06 1018.43 1018.77 1019.02 1019.22 1019.38 1019.56 1019.78 1019.93 1020.16 1020.37 1020.62 1020.60 1020.81 1021.14 1021.79 1021.82 1021.86 1021.96 1022.20 1022.45
1014.56 1014.59 1014.71 1014.99 1015.25 1015.44 1015.60 1015.76 1015.94 1016.01 1016.08 1016.04 1016.02 1015.91 1015.72 1015.72 1015.45 1015.28 1015.69 1016.27 1016.62 1016.90 1017.21 1017.55 1017.71 1017.94 1018.16 1018.38 1018.60 1018.81 1019.00 1019.31 1019.48 1019.63 1019.59 1019.74 1019.96 1020.47 1020.60 1020.73 1021.02 1021.31 1021.40
1013.83 1014.11 1014.34 1014.71 1014.90 1014.92 1014.94 1015.11 1015.15 1015.39 1015.60 1015.68 1015.45 1015.33 1015.15 1015.38 1015.24 1015.32 1015.64 1015.93 1015.94 1016.05 1016.12 1016.24 1016.39 1016.64 1016.85 1017.11 1017.36 1017.65 1017.86 1017.83 1018.00 1018.20 1018.27 1018.47 1018.90 1019.34 1019.53 1019.75 1020.03 1020.19 1020.40
1013.32 1013.50 1013.80 1013.98 1014.07 1014.30 1014.32 1014.41 1014.54 1014.67 1014.72 1014.79 1014.69 1014.49 1014.19 1014.25 1014.53 1014.66 1014.80 1014.95 1014.84 1014.91 1015.02 1015.18 1015.25 1015.30 1015.37 1015.62 1015.82 1016.14 1016.37 1016.54 1016.69 1016.89 1017.10 1017.47 1017.86 1018.21 1018.48 1018.82 1019.09 1019.29 1019.53
1012.57 1012.96 1013.24 1013.35 1013.42 1013.51 1013.62 1013.53 1013.56 1013.53 1013.51 1013.53 1013.53 1013.62 1013.67 1013.68 1013.79 1013.83 1013.86 1013.91 1013.86 1013.98 1014.05 1014.18 1014.25 1014.28 1014.35 1014.44 1014.50 1014.67 1014.88 1014.96 1015.16 1015.59 1016.00 1016.44 1016.85 1017.14 1017.51 1017.88 1018.16 1018.45 1018.74
1011.28 1011.79 1012.14 1012.40 1012.60 1012.67 1012.63 1012.56 1012.50 1012.50 1012.52 1012.65 1012.74 1012.85 1013.02 1013.12 1013.40 1013.32 1013.23 1013.20 1013.29 1013.41 1013.32 1013.39 1013.37 1013.31 1013.38 1013.45 1013.54 1013.68 1013.86 1014.07 1014.34 1014.59 1014.99 1015.50 1015.93 1016.36 1016.77 1017.08 1017.34 1017.64 1018.02
1011.58 1011.83 1011.91 1011.95 1011.99 1011.85 1011.81 1011.78 1011.79 1011.83 1011.94 1012.11 1012.28 1012.50 1012.71 1012.85 1013.00 1012.97 1012.85 1012.83 1012.83 1012.80 1012.79 1012.76 1012.53 1012.42 1012.54 1012.68 1012.80 1013.01 1013.19 1013.34 1013.66 1014.02 1014.44 1014.81 1015.25 1015.69 1016.08 1016.41 1016.72 1017.05 1017.38
1010.54 1010.87 1011.28 1011.60 1011.58 1011.39 1011.27 1011.20 1011.27 1011.41 1011.69 1011.92 1012.16 1012.48 1012.67 1012.86 1012.69 1012.58 1012.40 1012.26 1012.14 1012.17 1012.17 1012.04 1011.97 1012.01 1012.09 1012.24 1012.42 1012.57 1012.78 1012.95 1013.24 1013.58 1014.07 1014.48 1014.84 1015.20 1015.54 1015.84 1016.14 1016.47 1016.78
Wind_Speed
17 16 13 10 13 13 13 12 12 13 12 12 13 11 14 16 13 14 8 12 15 11 5 11 10 10 10 10 9 8 5 5 9 3 4 13 11 12 10 7 7 6 4
16 15 11 8 10 11 10 9 11 12 10 14 14 11 12 7 11 14 13 11 12 11 10 12 10 8 9 8 7 8 7 4 3 13 10 9 8 11 10 9 7 5 4
15 13 11 9 6 5 6 7 7 6 7 6 7 7 5 10 10 12 12 12 10 12 13 14 13 13 11 9 9 9 8 7 7 10 10 7 5 9 9 5 7 4 3
13 11 10 9 7 5 4 3 3 1 1 2 4 2 9 12 14 12 17 13 11 10 10 9 10 10 12 12 10 9 9 9 9 10 10 9 6 5 6 7 5 2 3
13 12 12 11 10 8 8 8 8 8 7 7 8 10 10 10 10 16 16 16 15 14 13 13 12 11 15 14 10 10 12 11 9 10 9 7 6 7 8 5 3 3 2
12 12 12 13 12 11 10 11 11 11 11 11 9 14 14 11 26 28 22 16 16 16 16 15 14 18 21 25 23 20 12 13 13 8 7 9 7 8 5 6 4 3 3
12 12 12 12 13 13 11 12 13 12 13 12 13 13 16 17 29 33 29 15 14 14 15 13 12 10 14 14 21 22 16 17 9 8 13 10 10 9 8 6 3 3 2
13 14 14 13 14 13 13 14 13 11 13 11 13 14 16 18 32 35 31 17 16 15 14 14 14 13 13 14 14 13 11 8 6 6 7 7 6 9 7 4 4 5 3
13 13 14 13 13 14 15 15 13 13 11 12 14 16 17 18 31 33 23 16 17 15 14 12 12 12 19 21 14 13 12 10 13 17 16 16 18 16 11 7 3 4 1
11 12 12 12 13 14 13 13 10 10 13 12 14 15 18 17 29 26 20 11 15 11 11 11 16 14 18 17 12 10 12 8 10 9 8 12 10 10 10 4 5 4 3
8 9 11 11 11 10 10 9 8 10 12 13 14 14 15 14 19 24 19 10 11 9 8 7 7 17 16 16 12 6 8 10 13 8 7 5 4 4 3 3 3 4 3
7 9 9 9 8 7 9 8 9 10 12 11 12 12 10 11 17 20 20 19 15 10 8 6 7 16 15 15 9 17 19 12 6 5 4 3 3 2 2 2 2 2 2
6 7 7 7 8 7 7 7 7 8 8 8 8 8 7 6 7 19 19 18 16 9 6 12 16 15 15 11 15 17 10 6 5 3 3 2 2 3 4 3 2 3 1
6 6 5 6 6 7 5 5 6 6 6 5 6 6 5 5 5 5 5 5 14 9 12 6 10 11 11 7 7 6 4 4 3 3 3 2 2 2 2 2 2 1 1
4 4 4 4 4 5 4 4 4 3 3 3 3 3 4 4 2 7 6 4 4 8 8 5 4 3 3 2 3 3 3 3 3 2 3 3 2 2 2 2 2 1 2
3 2 2 2 2 3 3 4 12 11 11 10 9 5 2 7 9 9 9 11 13 13 5 3 2 2 3 2 2 1 0 2 2 3 3 3 3 4 3 1 2 3 3
4 3 2 2 2 2 2 3 5 6 10 8 6 5 6 6 8 7 7 8 11 7 3 1 2 2 2 2 2 3 4 4 3 4 3 4 3 2 3 3 3 3 3
4 4 3 2 2 2 2 2 2 2 1 3 7 3 2 4 6 7 8 7 3 4 2 3 4 4 4 4 4 4 4 3 3 4 4 4 5 4 3 4 4 4 4
4 3 3 3 3 3 2 2 2 2 1 1 2 4 4 4 7 8 9 4 3 3 3 3 4 4 5 4 5 4 5 5 5 4 4 5 5 5 5 4 4 6 5
3 6 5 3 2 2 2 3 2 2 2 3 3 3 2 3 1 2 2 3 4 5 5 6 5 5 5 6 5 5 5 4 5 5 6 5 5 6 6 5 5 6 6
5 4 5 3 3 4 3 4 3 3 3 3 4 3 8 3 4 4 4 4 5 5 5 6 5 6 6 6 6 5 6 6 7 7 7 6 6 5 6 6 6 6 6
5 4 4 5 4 4 4 3 4 4 4 4 4 4 12 5 5 6 6 6 6 7 6 7 6 7 7 7 7 7 7 8 7 7 7 7 7 7 6 6 6 6 6
6 5 5 3 4 4 4 5 5 5 5 6 5 4 4 5 5 6 6 6 5 5 5 5 6 6 5 6 7 8 8 8 8 7 7 7 7 7 7 7 7 6 6
8 8 7 5 4 5 5 6 5 7 5 4 4 4 4 4 4 5 4 4 4 4 4 4 6 7 6 6 6 6 6 6 5 7 9 7 7 7 6 6 6 7 6
3 3 4 5 5 6 5 6 5 5 5 5 4 4 2 2 4 4 3 3 4 3 4 4 5 6 8 9 7 8 8 10 8 7 6 7 7 8 7 6 6 5 7
5 5 4 3 6 6 6 6 5 4 4 3 2 2 2 3 4 4 4 4 4 4 4 3 4 6 5 5 6 7 8 9 8 9 6 6 6 6 6 7 8 6 6
Wind_Direction
304 299 292 254 250 248 249 243 241 243 247 250 251 255 254 234 175 167 180 185 169 172 161 180 182 168 163 162 162 147 140 142 139 112 116 155 154 151 151 136 161 172 182
317 315 295 257 254 253 248 247 237 238 250 251 253 245 233 155 148 145 134 141 129 137 128 127 135 124 118 120 116 115 109 84 102 134 135 142 146 150 128 136 159 177 165
328 332 345 341 322 288 264 254 249 229 219 219 207 187 169 124 122 112 118 117 123 131 134 137 143 137 135 136 128 140 136 125 126 138 129 128 119 131 127 122 168 148 170
336 340 350 353 345 343 345 354 1 330 156 104 84 133 128 115 112 118 111 98 98 98 105 113 132 144 139 131 124 121 117 110 115 120 123 120 117 112 117 146 169 163 173
346 355 359 0 3 6 18 29 36 39 44 42 89 82 92 100 117 115 103 109 103 93 87 83 80 80 102 116 120 119 118 114 120 123 123 122 121 142 164 167 146 138 194
0 5 11 17 16 15 27 44 50 44 64 59 45 91 91 91 106 107 102 98 101 101 96 92 92 97 98 99 101 103 113 129 125 122 127 137 145 158 150 156 120 141 210
10 12 16 23 25 22 34 49 51 49 55 66 70 76 89 95 101 94 91 90 93 95 102 99 92 89 94 98 93 95 92 104 99 130 148 156 155 164 143 142 134 123 146
19 21 20 27 34 30 35 42 47 55 60 71 83 81 94 93 93 91 88 86 83 80 83 88 95 95 96 99 96 88 77 68 83 113 122 122 122 139 141 115 118 105 46
20 25 25 27 34 37 41 41 43 51 63 70 68 74 81 86 93 93 96 92 85 81 82 88 99 103 119 116 107 106 100 94 104 112 113 119 125 123 117 112 99 102 45
19 26 29 30 38 43 39 42 42 53 61 64 69 70 76 82 86 92 92 96 94 92 88 96 101 113 117 114 109 121 110 110 109 95 90 88 89 123 127 87 140 125 123
20 34 35 34 39 43 48 47 61 71 75 70 67 62 69 78 88 92 99 97 97 102 101 99 107 116 123 119 113 116 119 126 114 92 91 86 75 82 89 92 112 121 123
22 33 35 35 36 40 49 45 53 61 67 68 73 70 60 69 90 97 98 100 111 110 115 109 118 123 126 123 120 124 127 103 103 105 110 95 86 78 62 88 115 129 112
37 35 36 39 36 36 43 44 54 55 64 63 67 68 58 36 73 97 105 108 112 105 111 124 122 122 119 118 126 120 113 114 120 103 110 130 164 165 120 99 54 58 194
49 28 19 41 36 33 37 35 45 40 58 62 76 82 70 60 60 48 59 77 103 103 118 90 107 105 88 67 85 92 87 94 130 147 168 159 101 91 121 137 138 130 63
60 41 38 34 37 43 48 60 53 43 83 92 53 61 78 68 47 100 102 85 91 109 91 63 60 65 74 72 71 101 113 136 127 106 105 139 145 127 183 147 150 134 186
92 76 60 60 35 43 45 41 60 71 78 92 107 107 20 131 124 122 124 136 141 133 64 116 155 148 155 156 147 165 292 178 176 153 159 174 182 183 179 179 130 163 200
146 158 121 98 85 102 61 82 100 54 68 84 95 112 136 154 148 143 141 153 158 121 88 125 167 166 170 176 180 192 211 207 157 185 182 194 177 179 162 189 192 188 225
171 170 154 172 155 142 143 129 101 120 111 331 5 47 106 180 174 173 171 150 178 123 120 172 204 198 201 205 201 206 220 207 197 202 199 195 190 184 191 209 197 197 204
168 169 178 186 190 178 156 141 129 112 133 269 327 341 2 251 201 211 209 135 179 212 206 222 205 201 209 207 215 214 212 210 202 198 210 204 196 179 218 209 213 210 201
193 194 181 173 169 163 156 160 170 196 204 219 228 233 292 58 334 258 246 162 194 215 200 216 213 210 211 209 210 213 213 202 208 211 220 208 196 187 216 217 213 223 220
190 188 179 157 182 191 182 195 195 188 212 224 244 223 224 192 224 223 235 225 216 217 213 216 210 212 208 211 211 208 216 226 211 213 214 213 195 202 212 216 222 220 226
193 187 182 198 184 192 205 200 202 209 219 221 236 233 243 238 214 228 229 236 232 225 218 220 226 215 211 212 211 212 217 224 218 214 215 205 201 207 203 206 214 220 222
188 187 198 206 196 198 207 212 214 216 222 223 216 220 220 229 233 231 228 229 218 222 216 208 231 237 216 219 213 214 217 218 214 204 205 198 199 203 199 206 211 219 219
189 194 198 201 192 209 214 221 222 227 235 235 227 223 222 241 243 243 241 229 235 238 214 212 224 233 239 220 218 216 220 219 199 201 194 193 198 196 195 208 213 216 221
193 201 192 196 207 218 224 226 229 227 231 234 237 243 226 238 255 255 254 244 241 222 228 222 232 239 240 239 217 212 212 221 204 193 187 193 200 200 206 212 210 210 212
182 178 182 186 230 228 228 228 226 217 230 229 239 258 238 245 253 256 253 246 240 234 238 239 233 238 240 237 234 226 221 222 216 197 187 191 199 206 207 211 210 210 213